W0QQ Weather Reports


Display with metric or nautical units.
time (UTC)temp
F
wind
direction
speed
MPH
gust
MPH
rain 1hr
in
rain 24hr
in
rain mn
in
humidity
%
barometer
mb
20260905071547 78 11 1.0 5.0 0.00 0.00 0.00 75 1011.5
20260905070052 78 11 0.0 3.0 0.00 0.00 0.00 74 1011.5
20260905064552 79 11 0.0 3.0 0.00 0.00 0.00 73 1011.7
20260905063044 79 11 1.0 4.0 0.00 0.00 0.00 73 1011.9
20260905061541 79 11 0.0 4.0 0.00 0.00 0.00 73 1011.8
20260905060050 79 11 0.0 3.0 0.00 0.00 0.00 73 1011.8
20260905054543 80 189 0.0 2.0 0.00 0.00 0.00 73 1011.8
20260905053037 80 11 0.0 3.0 0.00 0.00 0.00 73 1011.8
20260905051549 80 11 0.0 4.0 0.00 0.00 0.00 73 1011.7
20260905050038 80 11 0.0 4.0 0.00 0.00 0.00 72 1011.8
20260905044634 80 11 0.0 3.0 0.00 0.00 0.00 72 1011.7
20260905043037 81 11 0.0 2.0 0.00 0.00 0.00 72 1011.6
20260905041534 81 11 0.0 1.0 0.00 0.00 0.00 72 1011.6
20260905040040 82 11 0.0 1.0 0.00 0.00 0.00 71 1011.5
20260905034531 82 11 0.0 1.0 0.00 0.00 0.00 71 1011.7
20260905033030 82 11 0.0 2.0 0.00 0.00 0.00 70 1011.7
20260905031537 83 11 0.0 1.0 0.00 0.00 0.00 69 1011.5
20260905030028 84 11 0.0 1.0 0.00 0.00 0.00 68 1011.4
20260905024529 84 11 0.0 1.0 0.00 0.00 0.00 67 1011.3
20260905023028 84 11 0.0 3.0 0.00 0.00 0.00 66 1011.2
20260905021536 85 11 0.0 2.0 0.00 0.00 0.00 65 1011.0
20260905020029 86 11 0.0 1.0 0.00 0.00 0.00 64 1010.6
20260905014526 87 11 0.0 2.0 0.00 0.00 0.00 62 1010.5
20260905013026 87 173 0.0 2.0 0.00 0.00 0.00 61 1010.2
20260905011528 88 11 0.0 1.0 0.00 0.00 0.00 60 1010.1
20260905010031 89 11 0.0 1.0 0.00 0.00 0.00 59 1010.0
20260905004532 91 11 0.0 2.0 0.00 0.00 0.00 57 1010.0
20260905003038 92 171 0.0 2.0 0.00 0.00 0.00 56 1010.1
20260905001522 93 11 0.0 3.0 0.00 0.00 0.00 55 1010.1
20260905000022 94 11 1.0 4.0 0.00 0.00 0.00 52 1010.1
20260904234526 94 11 1.0 6.0 0.00 0.00 0.00 51 1010.1
20260904233038 95 184 1.0 10.0 0.00 0.00 0.00 51 1010.1
20260904231523 95 197 2.0 8.0 0.00 0.00 0.00 50 1010.3
20260904230034 96 11 1.0 13.0 0.00 0.00 0.00 49 1010.3
20260904224519 96 11 2.0 9.0 0.00 0.00 0.00 49 1010.2
20260904223018 96 11 5.0 13.0 0.00 0.00 0.00 48 1010.2
20260904221516 97 142 5.0 13.0 0.00 0.00 0.00 46 1010.3
20260904220018 97 11 4.0 13.0 0.00 0.00 0.00 47 1010.4
20260904214515 98 11 2.0 9.0 0.00 0.00 0.00 47 1010.4
20260904213018 99 11 4.0 18.0 0.00 0.00 0.00 45 1010.5
20260904211516 99 261 4.0 12.0 0.00 0.00 0.00 46 1010.7
20260904210016 100 11 1.0 9.0 0.00 0.00 0.00 46 1010.8
20260904204519 100 184 4.0 11.0 0.00 0.00 0.00 45 1010.8
20260904203014 100 11 2.0 10.0 0.00 0.00 0.00 45 1011.0
20260904201509 100 11 3.0 13.0 0.00 0.00 0.00 44 1011.2
20260904200016 100 11 4.0 13.0 0.00 0.00 0.00 44 1011.3
20260904194508 100 11 4.0 19.0 0.00 0.00 0.00 46 1011.5
20260904193002 99 270 1.0 10.0 0.00 0.00 0.00 46 1011.6
20260904191559 99 11 6.0 16.0 0.00 0.00 0.00 47 1011.6
20260904190056 98 11 4.0 16.0 0.00 0.00 0.00 48 1011.7
20260904184553 98 11 4.0 15.0 0.00 0.00 0.00 49 1011.9
20260904183058 97 11 3.0 15.0 0.00 0.00 0.00 50 1012.0
20260904181545 96 209 4.0 14.0 0.00 0.00 0.00 51 1012.1
20260904180055 96 11 4.0 20.0 0.00 0.00 0.00 52 1012.2
20260904174640 95 11 7.0 22.0 0.00 0.00 0.00 51 1012.4
20260904173044 95 11 4.0 17.0 0.00 0.00 0.00 55 1012.4
20260904171542 94 11 7.0 16.0 0.00 0.00 0.00 55 1012.6
20260904170028 93 11 4.0 15.0 0.00 0.00 0.00 56 1012.8
20260904164524 92 11 9.0 20.0 0.00 0.00 0.00 55 1012.9
20260904163022 91 11 7.0 22.0 0.00 0.00 0.00 58 1013.0
20260904161517 91 205 4.0 16.0 0.00 0.00 0.00 61 1013.0
20260904160012 90 11 8.0 17.0 0.00 0.00 0.00 61 1012.9
20260904154510 89 11 4.0 10.0 0.00 0.00 0.00 62 1013.0
20260904153003 88 11 1.0 14.0 0.00 0.00 0.00 64 1013.1
20260904151600 87 11 4.0 15.0 0.00 0.00 0.00 65 1013.0
20260904150056 86 11 3.0 23.0 0.00 0.00 0.00 65 1012.8
20260904144553 85 11 3.0 14.0 0.00 0.00 0.00 69 1013.0
20260904143045 83 11 1.0 12.0 0.00 0.00 0.00 72 1013.2
20260904141541 82 202 4.0 11.0 0.00 0.00 0.00 75 1013.1
20260904140037 81 11 4.0 11.0 0.00 0.00 0.00 76 1013.0
20260904134532 80 209 1.0 11.0 0.00 0.00 0.00 77 1013.2
20260904133032 79 11 3.0 15.0 0.00 0.00 0.00 78 1013.1
20260904131528 78 11 5.0 11.0 0.00 0.00 0.00 78 1013.0
20260904130027 78 11 3.0 15.0 0.00 0.00 0.00 79 1012.8
20260904124524 77 11 3.0 10.0 0.00 0.00 0.00 80 1012.6
20260904123022 77 11 2.0 10.0 0.00 0.00 0.00 81 1012.6
20260904121519 76 11 2.0 10.0 0.00 0.00 0.00 81 1012.2
20260904120019 76 11 1.0 9.0 0.00 0.00 0.00 81 1011.9
20260904114525 76 11 1.0 10.0 0.00 0.00 0.00 81 1011.9
20260904113027 77 11 2.0 6.0 0.00 0.00 0.00 80 1011.7
20260904111514 77 11 2.0 6.0 0.00 0.00 0.00 80 1011.6
20260904110012 77 197 1.0 9.0 0.00 0.00 0.00 79 1011.7
20260904104514 77 11 2.0 9.0 0.00 0.00 0.00 79 1011.7
20260904103011 77 207 3.0 11.0 0.00 0.00 0.00 79 1011.4
20260904101510 77 11 3.0 11.0 0.00 0.00 0.00 80 1011.4
20260904100008 77 11 2.0 11.0 0.00 0.00 0.00 79 1011.3
20260904094507 77 11 2.0 8.0 0.00 0.00 0.00 79 1011.3
20260904093004 77 11 2.0 6.0 0.00 0.00 0.00 79 1011.1
20260904091503 77 11 1.0 5.0 0.00 0.00 0.00 78 1010.9
20260904090004 77 11 1.0 6.0 0.00 0.00 0.00 78 1010.8
20260904084501 77 11 1.0 5.0 0.00 0.00 0.00 77 1010.7
20260904083100 78 11 1.0 5.0 0.00 0.00 0.00 77 1010.7
20260904081633 78 218 1.0 5.0 0.00 0.00 0.00 76 1010.6
20260904080056 78 11 2.0 6.0 0.00 0.00 0.00 75 1010.5
20260904074608 78 200 2.0 5.0 0.00 0.00 0.00 75 1010.4
20260904073103 79 203 0.0 3.0 0.00 0.00 0.00 74 1010.5